Theta_e
323 320 320 318 303 303 300 302 307 306 308 313 316 312 313 316 315 309 329 337 337 334 340 343 346 346 343 343 345 346 346 348 347 347 347 346 346 344 342 343 343 341 339 339 338 338 337 337 336
317 318 318 314 299 296 299 305 305 308 311 316 313 313 312 313 324 325 327 335 334 333 336 339 344 345 343 343 344 345 345 346 346 346 346 346 345 344 341 340 341 338 338 338 337 336 335 336 337
318 319 312 307 300 295 299 305 308 311 313 313 312 316 316 317 324 326 332 333 333 330 336 340 344 344 344 343 343 344 344 345 345 345 345 344 344 343 341 340 340 337 336 337 336 335 335 337 337
315 315 313 302 299 300 302 306 311 310 310 313 312 311 320 325 325 330 333 332 331 330 336 342 344 344 344 343 343 343 343 343 343 342 343 343 341 340 340 339 340 337 336 336 335 334 335 335 335
314 314 305 303 302 301 302 309 312 309 309 310 312 310 316 328 332 332 331 332 330 331 336 342 343 344 343 342 343 343 343 342 342 342 341 341 339 338 338 339 337 336 335 335 334 332 334 334 333
307 311 302 301 302 302 303 308 310 309 310 311 308 313 317 330 330 330 330 331 332 332 335 340 336 339 341 342 342 342 343 343 343 342 341 340 340 338 337 336 336 335 333 334 333 332 332 332 331
305 306 301 303 305 300 303 309 309 308 308 310 312 310 320 326 331 331 329 329 334 333 334 336 337 335 335 337 338 340 341 341 341 339 338 337 337 337 336 335 334 334 333 333 332 331 330 330 329
306 307 303 305 304 304 305 305 310 309 308 314 313 307 313 325 331 332 329 328 333 332 332 331 334 335 333 334 332 334 336 336 336 334 332 330 331 331 331 330 333 331 331 332 330 329 327 326 325
309 301 300 303 306 305 307 304 306 309 310 310 312 316 322 331 332 329 326 326 332 332 332 332 331 330 331 334 330 329 330 331 330 329 327 325 327 327 327 328 331 330 330 329 329 327 326 326 325
303 301 303 310 309 307 306 305 307 305 307 307 312 324 329 329 328 326 324 323 326 329 333 333 331 330 330 332 332 332 329 329 330 328 327 328 327 326 327 323 327 329 327 328 326 325 326 323 320
302 301 308 310 309 307 307 305 308 304 304 308 310 320 326 326 326 326 325 324 326 327 331 334 332 331 330 329 329 330 329 328 327 327 326 327 326 324 325 323 321 320 319 321 323 321 322 321 320
298 305 307 310 307 305 304 307 304 305 304 310 313 321 325 323 325 325 324 325 326 326 329 333 332 330 330 330 330 330 329 328 326 326 327 324 325 324 323 323 323 321 320 319 319 320 320 320 321
298 303 305 307 305 304 305 303 304 303 306 306 311 321 324 324 324 326 325 325 326 323 328 330 333 331 331 329 330 330 328 327 326 326 327 326 324 323 323 322 321 320 319 318 318 319 319 319 319
303 303 304 305 304 303 301 301 302 304 308 306 312 317 321 323 324 325 325 324 325 325 325 330 331 333 332 329 329 329 329 328 327 326 326 326 325 324 323 322 322 321 319 317 316 317 317 317 317
304 298 302 302 303 301 301 298 298 304 305 305 307 314 318 320 323 324 325 324 325 326 326 328 329 332 331 330 329 328 329 329 328 328 328 326 326 325 324 323 322 322 321 319 317 317 316 316 317
297 297 294 300 302 301 299 295 302 304 302 303 305 308 313 318 321 323 325 326 326 327 325 327 330 330 331 330 330 329 328 327 327 327 328 328 327 327 324 324 323 325 323 321 319 318 317 317 318
295 291 293 300 303 299 297 296 304 306 302 301 302 307 310 313 317 320 322 326 327 328 327 325 326 328 328 330 330 329 327 326 327 327 327 328 328 328 326 324 325 324 323 320 321 321 321 320 320
290 293 295 297 298 298 294 295 299 301 301 301 302 305 308 311 314 318 321 323 324 327 328 328 327 326 327 328 328 329 328 327 327 326 327 328 328 328 326 325 324 323 320 321 319 319 319 319 319
299 296 296 299 299 295 295 294 296 299 298 299 300 303 305 311 314 317 321 322 323 324 327 328 328 327 328 327 326 325 326 326 326 326 327 328 328 328 326 325 323 321 320 320 319 318 317 317 317
296 295 295 301 296 294 293 294 297 297 298 300 301 301 304 306 311 316 317 320 321 324 325 328 329 330 329 329 329 328 325 326 326 328 328 328 329 330 327 325 323 322 320 319 319 317 315 316 316
295 293 296 296 292 292 289 290 294 298 298 299 301 303 304 304 307 311 315 318 320 321 324 326 329 331 331 331 330 327 327 326 325 326 329 329 329 329 327 327 325 323 320 319 318 319 317 316 314
294 300 296 294 290 287 291 285 292 296 296 298 299 300 300 301 306 310 314 318 320 322 324 326 328 328 331 331 328 326 326 323 326 327 327 327 329 329 328 328 327 324 323 320 320 319 317 315 313
297 301 297 293 290 290 286 283 291 296 294 296 299 299 299 301 302 304 313 317 319 320 323 325 326 326 327 330 330 328 325 326 326 326 326 328 328 328 328 328 326 326 326 324 323 321 319 317 317
298 297 293 291 290 284 290 286 287 293 295 297 299 300 301 300 301 302 306 314 316 319 320 322 322 323 324 327 329 329 327 326 325 324 325 325 326 330 330 328 327 326 325 324 325 324 320 319 319
293 288 282 281 281 281 289 285 289 294 295 297 298 300 300 301 301 300 300 302 306 310 316 319 321 321 323 324 325 328 327 326 324 324 324 327 326 326 328 329 327 324 325 324 322 321 319 317 318
288 290 285 279 280 279 280 282 287 298 298 296 297 295 295 300 298 299 299 299 299 302 302 304 307 313 318 321 322 323 325 324 324 325 326 326 325 326 328 328 327 324 326 324 322 324 321 319 315
288 285 294 283 277 278 281 285 291 293 292 292 293 292 293 295 297 297 298 299 299 300 301 302 304 305 307 313 316 316 316 316 318 322 321 324 325 326 326 326 326 325 323 322 321 321 319 318 317
291 294 285 284 276 274 279 280 285 290 290 290 291 291 292 296 297 298 299 300 301 303 304 304 306 309 311 313 314 313 313 313 316 315 315 315 319 323 322 322 322 319 318 317 318 318 317 315 309
287 287 289 287 284 279 275 279 289 290 291 290 290 292 292 295 296 298 300 302 303 304 305 305 307 307 308 310 310 311 310 310 310 310 310 309 309 311 312 313 313 312 311 312 313 311 309 305 302
292 288 289 284 280 280 280 281 286 289 290 290 291 293 293 296 297 298 299 300 302 303 304 304 305 305 306 307 307 308 308 308 307 305 306 308 304 303 305 306 306 305 303 304 305 302 302 300 297
Wind_Speed
12 11 4 3 1 3 5 3 7 8 5 4 9 4 12 9 7 8 6 15 13 13 10 9 12 13 14 13 11 10 11 12 14 16 16 17 18 19 19 19 18 18 19 19 19 18 18 17 16
8 12 2 4 2 4 4 8 8 8 6 9 3 3 5 6 7 11 6 11 14 12 11 9 11 14 14 13 12 11 12 13 12 15 15 17 17 18 19 19 17 17 19 19 19 18 17 16 15
10 11 2 2 4 3 4 8 11 7 6 4 4 4 6 5 11 9 10 12 11 10 13 9 11 14 13 12 13 14 14 15 17 17 15 16 18 19 18 18 17 17 17 18 17 17 16 16 15
5 3 4 2 8 5 6 7 13 8 2 4 3 8 5 4 5 9 12 10 10 12 12 8 14 15 13 13 12 14 15 14 14 16 18 18 17 18 16 16 17 16 16 16 16 16 15 15 14
3 4 4 5 6 6 3 4 10 7 8 6 3 5 6 8 11 14 11 9 11 12 10 9 11 12 12 12 12 12 13 14 15 14 16 17 17 17 16 15 16 14 15 15 15 15 14 14 13
4 2 3 5 7 6 6 2 6 6 8 7 2 8 5 9 10 10 9 9 12 12 10 9 10 10 10 9 8 8 10 14 14 13 14 14 15 17 15 16 16 13 13 14 14 14 13 13 11
3 4 7 8 8 6 5 7 7 7 5 5 3 8 6 7 9 9 8 8 14 11 10 8 8 7 9 10 9 9 12 13 12 13 13 13 13 17 14 12 14 13 12 12 12 12 12 11 10
3 4 11 10 7 3 7 5 4 7 6 4 4 5 7 13 9 10 8 7 14 7 9 8 8 7 6 6 9 9 10 11 11 11 11 10 11 12 12 11 12 11 11 10 9 9 9 9 7
4 4 7 13 7 5 7 6 1 5 7 2 3 6 11 19 9 11 8 6 13 7 6 10 8 7 7 8 6 8 8 8 9 6 8 8 5 7 7 9 10 9 8 8 7 6 5 4 4
3 5 7 7 5 3 8 7 7 3 7 3 7 11 17 15 8 13 11 9 8 8 5 6 8 8 8 8 7 6 6 5 5 5 6 3 6 5 7 6 8 6 5 5 5 4 3 4 3
7 14 11 11 6 4 8 5 8 5 7 8 10 13 15 14 11 12 11 10 10 9 6 4 5 8 7 7 5 3 3 4 4 6 3 4 4 4 4 3 3 3 5 3 3 2 1 4 4
4 12 10 10 4 2 5 5 4 8 3 5 13 17 15 13 14 13 13 12 12 13 11 7 4 5 7 5 4 5 4 4 3 4 5 3 3 4 4 3 4 3 2 3 0 2 1 2 2
4 5 7 5 7 6 3 6 7 10 6 5 5 17 18 15 13 10 9 8 13 12 14 12 8 4 5 6 4 5 5 4 5 5 5 5 4 4 3 3 3 3 2 2 2 2 1 0 1
4 9 9 4 5 4 4 6 6 8 10 8 10 13 14 15 16 13 13 11 14 13 13 14 14 8 4 4 4 3 4 5 4 4 5 6 4 4 4 4 3 3 2 2 0 1 1 1 1
1 7 10 7 9 6 4 7 8 9 8 10 10 11 12 14 15 16 14 11 12 11 13 16 15 12 12 11 6 3 4 5 4 4 7 6 4 5 5 4 3 3 3 2 1 1 1 2 3
2 2 6 7 9 5 9 7 11 10 10 10 11 10 11 15 16 13 13 12 9 9 11 14 13 13 14 12 9 5 3 3 3 3 4 7 6 5 5 4 4 4 4 3 3 3 3 3 3
4 4 12 10 15 6 9 5 12 12 12 10 10 10 10 10 10 11 11 14 14 11 10 12 12 14 10 12 9 7 6 4 4 4 4 5 7 7 5 5 5 5 4 3 2 1 1 1 2
6 7 11 13 11 10 9 12 6 6 10 11 10 10 10 10 11 9 11 10 10 11 12 11 10 11 9 5 6 8 7 6 5 5 5 7 5 7 5 4 5 5 4 3 2 4 2 3 2
14 15 15 18 10 10 13 13 13 9 5 9 10 10 10 13 11 9 9 9 10 9 13 11 11 13 9 8 7 5 8 7 7 5 7 7 6 7 7 5 5 5 5 6 5 3 4 3 3
11 14 16 11 10 8 10 17 11 10 10 12 11 10 11 9 11 14 11 9 10 13 12 13 14 13 11 9 7 5 4 4 4 5 6 7 8 8 7 6 5 7 5 6 7 5 3 3 4
6 10 19 12 4 4 3 8 9 12 9 10 9 9 10 11 12 10 11 11 9 10 12 13 12 14 13 11 7 4 3 3 4 4 6 6 7 7 7 9 7 7 5 5 5 6 7 4 3
19 16 15 6 11 7 10 6 12 18 14 12 13 14 10 10 10 12 14 15 14 15 10 10 12 12 13 12 7 8 9 5 6 6 5 6 9 8 8 9 8 7 6 6 7 6 6 4 5
14 18 13 7 10 5 6 3 6 9 16 17 19 12 11 10 9 11 17 17 15 10 11 12 12 10 9 12 11 8 8 7 4 5 7 8 6 8 7 7 8 8 7 8 8 7 9 6 4
3 10 8 7 3 7 12 9 7 10 19 22 15 15 14 12 11 10 10 12 11 11 10 10 10 10 9 11 14 13 11 9 7 5 6 4 4 6 8 7 6 7 6 8 8 7 7 7 6
7 11 4 2 3 8 10 9 9 7 10 11 15 15 14 11 12 11 11 10 10 10 10 9 10 9 9 9 9 12 9 9 9 7 5 5 4 2 5 6 6 4 5 5 4 5 5 6 6
14 12 6 9 7 4 3 11 7 20 11 5 8 8 5 11 6 10 10 9 8 8 6 6 6 5 6 7 7 6 8 4 4 5 6 4 3 3 5 5 5 6 6 6 6 6 4 5 5
10 14 4 2 0 4 6 5 9 8 7 6 9 8 7 7 8 8 8 7 8 8 7 7 7 6 7 6 5 4 4 4 4 5 3 2 1 2 4 5 6 6 6 6 5 4 3 4 4
7 4 3 5 7 6 4 4 7 11 11 8 8 9 8 7 8 8 7 7 5 7 6 7 8 7 6 7 6 5 5 4 4 3 3 2 2 2 1 3 1 2 3 1 3 3 3 4 2
6 7 7 5 5 5 4 8 6 8 9 11 9 9 9 9 8 7 7 7 8 8 7 7 7 8 7 6 6 6 5 5 5 3 3 2 4 4 4 4 3 4 3 3 2 4 4 5 6
12 12 9 2 5 1 2 7 1 6 7 7 8 7 7 10 9 9 8 7 7 8 8 8 7 7 6 7 6 6 6 5 6 6 6 4 5 5 5 4 3 4 4 3 4 5 5 7 6
Wind_Direction
312 296 251 304 289 214 128 80 77 91 116 42 41 12 83 46 26 115 157 107 120 105 123 105 107 103 98 93 83 69 74 90 98 98 94 90 90 87 84 79 74 72 70 67 65 63 62 62 63
309 305 275 273 245 257 90 130 126 78 86 77 93 319 60 86 81 112 119 125 118 134 127 117 114 106 104 95 92 86 68 78 84 101 96 91 89 89 84 79 74 75 71 68 66 62 63 67 68
276 271 290 304 269 7 93 149 110 100 110 148 104 26 32 84 123 154 125 117 122 116 103 116 114 113 104 100 92 88 81 81 79 78 90 92 88 85 84 80 76 74 75 72 68 64 68 69 61
320 276 255 246 270 58 42 97 110 128 61 19 339 90 73 294 141 121 128 129 119 105 103 115 123 118 112 106 99 99 96 91 91 87 83 86 84 83 82 79 79 72 74 69 67 67 73 73 60
255 270 273 219 258 102 51 70 130 161 151 169 232 104 102 64 97 131 129 129 114 107 112 113 109 114 114 114 108 106 109 108 101 99 95 94 95 87 83 81 79 75 75 71 65 66 72 69 61
301 271 267 255 213 111 120 141 147 180 159 130 146 107 115 114 133 139 136 131 122 117 122 123 110 110 106 99 106 114 103 93 95 102 99 94 103 93 86 80 80 78 76 71 67 71 73 69 61
245 268 259 260 293 122 155 163 187 180 143 158 315 118 118 141 151 136 139 142 116 129 123 126 126 111 104 99 89 102 101 95 92 91 89 88 89 95 87 80 82 76 75 77 74 74 73 68 57
319 258 257 254 226 251 116 174 201 192 143 49 19 152 165 168 161 139 133 152 122 113 139 147 137 148 127 114 94 93 96 99 101 103 102 99 98 108 107 99 89 89 88 88 86 83 82 80 66
307 278 231 250 213 163 130 173 296 354 120 104 82 26 124 137 169 144 139 166 127 141 161 145 150 152 139 128 118 106 99 105 109 113 137 145 144 114 85 102 103 106 103 101 104 101 111 120 125
173 239 250 267 259 258 157 196 158 149 138 122 93 83 107 133 177 157 160 171 128 139 160 157 162 152 150 145 160 143 139 157 157 150 185 201 82 89 103 102 115 120 123 131 130 160 215 210 213
191 234 231 293 309 26 141 203 151 194 195 184 165 149 141 152 189 168 173 174 143 162 176 216 189 144 148 135 180 151 171 171 160 169 145 107 109 133 137 141 158 169 200 212 192 205 55 41 34
285 229 250 242 130 306 188 180 183 189 207 169 164 158 151 167 189 182 183 166 163 171 177 181 221 167 154 145 188 159 162 147 158 159 143 139 152 182 154 166 170 162 192 117 305 92 54 47 77
242 261 235 288 134 243 7 224 191 206 192 125 132 154 163 170 193 194 191 171 166 175 168 182 200 199 150 151 207 158 157 167 168 157 173 173 168 176 163 141 162 173 145 171 168 158 165 80 58
314 313 250 198 206 219 202 228 158 236 212 150 144 163 170 177 191 191 192 193 175 173 169 168 190 193 173 178 205 195 154 167 183 157 175 216 167 165 172 152 174 164 166 154 127 98 11 313 154
204 349 285 212 204 216 208 266 203 239 222 173 183 172 176 187 189 197 191 190 175 177 170 169 175 187 188 190 207 239 188 165 170 176 173 201 200 171 170 167 176 188 162 127 105 168 202 272 273
149 141 238 209 213 190 161 239 219 211 229 196 183 197 185 187 192 192 184 186 187 169 172 174 173 192 180 184 191 201 246 153 163 202 179 184 194 199 179 175 186 181 151 176 195 201 221 219 223
214 194 224 225 196 149 187 234 240 215 206 200 201 204 189 185 189 185 186 185 181 178 178 174 172 189 195 175 174 181 202 173 197 199 209 200 187 199 184 195 195 172 165 166 193 245 131 306 308
184 201 210 222 181 192 195 240 273 211 181 194 221 195 185 190 195 188 183 176 168 181 179 180 181 178 191 182 167 172 179 189 205 207 183 198 205 188 200 209 178 134 143 179 188 211 219 228 252
205 195 214 211 189 183 210 227 236 206 214 212 221 200 190 189 193 184 179 176 168 181 178 185 178 186 180 189 186 185 178 186 193 201 210 180 199 196 191 200 167 161 182 204 183 182 219 253 209
192 196 225 221 164 163 213 239 227 214 205 205 210 218 195 190 183 187 182 176 174 185 186 183 193 184 189 192 187 191 175 182 191 189 196 199 191 197 188 188 185 187 194 193 190 174 187 223 184
205 231 211 219 132 319 344 273 227 229 193 200 219 219 207 189 192 173 174 184 181 186 190 191 196 190 192 191 180 160 166 173 187 200 208 204 194 194 183 182 189 196 182 197 196 193 187 215 203
215 219 254 207 154 211 159 270 205 213 211 192 206 217 216 192 178 173 175 183 191 198 186 186 196 198 190 184 174 185 203 197 204 192 201 198 193 196 192 190 194 190 195 196 197 192 203 172 212
231 209 254 207 190 126 206 244 223 193 209 211 206 203 211 213 186 178 180 182 192 181 188 189 193 195 186 182 187 183 194 199 200 187 196 200 196 196 197 195 192 199 198 207 201 193 201 189 192
19 174 18 340 286 238 199 192 230 203 193 217 211 205 202 196 197 196 181 179 183 179 180 186 186 194 189 184 185 194 197 191 198 205 205 191 180 198 192 199 200 208 201 209 210 206 190 199 210
143 122 117 156 253 232 186 207 228 187 199 194 200 205 198 197 186 186 168 163 164 170 173 171 179 193 188 184 186 193 195 190 200 198 194 183 177 176 194 203 199 195 207 204 199 195 203 191 205
201 181 160 172 194 210 340 223 237 231 241 206 180 124 86 202 147 159 158 147 146 151 160 163 177 186 181 180 183 181 192 198 201 206 231 229 176 192 203 197 193 207 217 213 205 213 193 184 206
191 235 159 110 148 79 210 280 313 237 230 194 165 137 144 130 122 116 112 134 148 152 172 177 175 190 192 175 155 153 113 115 137 108 90 83 140 179 208 214 218 215 201 208 200 183 190 200 206
244 272 201 239 151 223 229 246 225 214 203 186 174 179 166 137 130 134 139 136 129 141 151 163 172 178 156 143 142 140 140 141 111 125 144 164 279 296 142 285 273 108 89 16 184 169 170 168 85
186 217 214 268 150 191 142 251 212 225 171 173 184 196 185 161 149 139 128 121 124 122 133 136 127 124 124 127 128 144 140 129 118 119 111 95 77 55 53 27 26 56 30 359 337 75 103 96 106
247 201 201 234 196 149 217 268 76 93 100 128 139 146 167 143 138 133 137 144 148 153 142 139 133 131 134 125 123 125 117 113 103 89 67 60 78 56 58 56 75 73 59 53 115 117 116 127 131